Back to catalog

COSMOS 1375 DEB

AliveLEO
NORAD 16205·DEBRIS·🇷🇺 Russia

Launched Jun 6, 1982 from Plesetsk Cosmodrome

Loading…

Next Passes (next 24 hours)

TLE

FreshSource: Space-Track

Epoch: Sep 14, 2026, 02:43 UTC

1 16205U 82055G   26257.11361400 -.00000152  00000-0 -65769-4 0  9999
2 16205  65.8247 300.0990 0054343   5.2533  25.1620 13.80443740 50124

Track COSMOS 1375 DEB in real time with AllMySat

Download on the App Store